カタログに戻る

STARLINK-34007

運用中通信VLEO
NORAD 63868·PAYLOAD·🇺🇸 United States

打ち上げ May 10, 2025 から Vandenberg Space Force Base

Loading…

次のパス (今後24時間)

TLE

最新Source: CelesTrak SupGP

元期: Sep 14, 2026, 21:27 UTC

1 63868C 25094E   26257.89423611 -.00017435  00000+0 -59123-3 0  2578
2 63868  69.9997 115.7570 0003128 271.1213 160.3465 15.30416549    13

AllMySatでSTARLINK-34007をリアルタイム追跡

Download on the App Store